Location: McMath-Hulbert Observatory
(42.6964°N, 83.3187°W)
Time: 11:26:53
(UTC-04:00)

Daily predictions for brighter satellites

Satellite Brightness Start Highest point End
(mag) Time Altitude Azimuth Time Altitude Azimuth Time Altitude Azimuth
ATLAS CENTAUR R/B 4.1 21:24:29 10° SSW 21:30:29 67° ESE 21:48:45 10° NE
ERS-1 Rocket 4.5 21:28:47 10° ESE 21:32:32 22° ENE 21:36:17 10° NNE
Cosmos 1743 2.8 21:29:47 10° N 21:33:35 59° E 21:37:21 10° SSE
ATLAS CENTAUR R/B 3.8 21:32:10 10° WNW 21:35:44 22° WSW 21:39:25 10° SSW
CENTAUR R/B 2.9 21:32:06 10° S 21:37:32 40° ESE 21:43:42 10° NE
Iridium 2 4.3 21:35:04 10° SSE 21:38:36 37° E 21:42:09 10° NNE
ELECTRON R/B 4.3 21:36:14 10° N 21:38:39 63° E 21:41:09 10° SSE
SJ 16-02 3.2 21:36:47 10° NNE 21:39:46 17° ENE 21:42:44 10° E
Cosmos 2333 Rocket 4.4 21:37:52 10° NNE 21:39:55 12° NE 21:41:58 10° ENE
Cosmos 1898 Rocket 3.6 21:35:22 10° NNW 21:40:42 87° ENE 21:46:03 10° SSE
Meteor 1-12 Rocket 4.4 21:35:34 10° N 21:41:34 80° E 21:47:35 10° SSE
CZ-4C R/B 4.2 21:36:28 10° NNW 21:42:19 28° NE 21:48:48 10° E
Cosmos 2233 Rocket 4.0 21:38:40 10° S 21:44:49 81° E 21:51:03 10° N
Cosmos 1814 Rocket 4.2 21:39:46 10° S 21:44:52 54° ESE 21:50:03 10° NNE
Okean 1 4.4 21:46:51 10° SSW 21:50:46 48° WNW 21:54:44 10° N
Resurs 01 Rocket 2.3 21:47:35 10° S 21:51:53 54° W 21:56:13 10° NNW
ATLAS 3B R/B 3.9 21:45:51 10° WSW 21:52:44 48° NW 21:59:23 10° NNE
H-2A R/B 2.7 21:48:27 10° SE 21:53:01 39° ENE 21:57:42 10° N
Cosmos 990 Rocket 4.0 21:48:07 10° NNW 21:53:22 82° ENE 21:58:37 10° SSE
Meteor 2-4 Rocket 3.9 21:49:14 10° S 21:54:29 52° E 21:59:54 10° NNE
SL-08 RB Rocket 4.4 21:52:37 11° SE 21:56:38 39° ENE 22:00:54 10° N
Lacrosse 5 rocket 2.3 21:54:33 10° NW 21:58:44 41° NE 22:02:25 11° ESE
Aureole 2 Rocket 2.5 21:55:58 10° N 21:58:46 41° ENE 22:00:42 16° SE
ARGOS 3.3 21:56:31 10° SSE 22:01:49 61° ENE 22:07:09 10° N
Cosmos 2322 Rocket 2.4 22:00:46 10° NNW 22:06:21 69° WSW 22:11:55 10° SSE
Cosmos 2322 4.4 22:01:06 10° NNW 22:06:31 41° ENE 22:10:59 14° ESE
Cosmos 1242 Rocket 3.5 22:07:16 10° NNW 22:10:47 45° W 22:14:14 10° S
SL-16 R/B 2.8 22:10:58 10° NNW 22:16:30 54° WSW 22:21:59 10° S
Cosmos 2150 Rocket 4.1 22:16:03 10° NNW 22:21:27 82° WSW 22:25:55 15° SSE
CSL-04 DEB 4.5 22:19:57 18° SSE 22:23:01 67° ENE 22:27:04 10° N
Cosmos 1340 Rocket 2.8 22:19:10 10° S 22:23:13 82° E 22:27:19 10° NNE
BREEZE-M R/B 4.1 22:23:09 10° W 22:26:42 33° NNW 22:29:07 10° NE
MetOp-B 4.1 22:23:56 14° SSE 22:28:31 87° E 22:33:55 10° NNW
Cosmos 540 Rocket 3.5 22:23:55 10° S 22:28:59 59° ESE 22:34:05 10° NNE
Cosmos 1025 Rocket 4.1 22:27:28 21° SE 22:29:11 27° E 22:32:52 10° NNE
Cosmos 1513 Rocket 4.4 22:23:55 10° S 22:29:57 70° E 22:36:08 10° NNE
Cosmos 2034 Rocket 4.0 22:29:18 12° S 22:34:50 62° E 22:40:55 10° NNE
Cosmos 2219 4.3 22:34:42 21° SE 22:36:46 26° ESE 22:41:23 10° NE
Cosmos 2237 4.3 22:31:40 10° NNW 22:37:24 69° ENE 22:41:04 23° SE
Cosmos 1464 Rocket 4.0 22:31:16 10° S 22:37:38 88° E 22:44:03 10° N
SPOT 5 3.0 22:37:54 24° SE 22:40:19 52° ENE 22:44:48 10° N
USA 245 3.3 22:38:31 26° SSE 22:40:30 79° ENE 22:45:01 10° N
Terra 3.0 22:38:20 19° ESE 22:40:37 28° ENE 22:44:39 10° N
Cosmos 1455 Rocket 3.5 22:36:27 10° NNW 22:40:44 58° W 22:44:20 14° S
Cosmos 841 Rocket 4.1 22:41:23 10° SW 22:46:33 58° WNW 22:51:46 10° NNE
Meteor 1-15 Rocket 4.2 22:43:06 10° N 22:48:52 84° E 22:52:34 22° SSE
Abrixas rocket 4.0 22:48:43 10° WNW 22:51:40 31° N 22:54:36 10° NE
DELTA 2 R/B (1) 4.4 22:48:47 10° SSW 22:53:20 27° SSE 22:53:20 27° SSE
Helios 1A 2.9 22:51:28 31° SSE 22:53:24 77° ENE 22:57:35 10° N
Okean 2 3.4 22:52:12 29° SSE 22:54:10 64° E 22:58:19 10° NNE
CZ-2C R/B 4.1 22:50:53 10° NE 22:55:04 21° E 22:56:06 20° ESE
Cosmos 2360 Rocket 2.5 22:49:50 10° NNW 22:55:26 64° WSW 22:58:58 23° S
Cosmos 372 Rocket 3.9 22:50:44 10° NNW 22:55:53 81° ENE 22:58:30 29° SSE
BREEZE M DEB (TANK) 3.4 22:49:01 10° WNW 22:57:08 43° SW 22:58:38 29° S
USA 234 3.6 22:51:22 10° NE 22:57:53 70° NW 23:04:24 10° WSW
ISS -0.9 22:56:20 10° NW 22:58:40 18° N 23:00:59 10° NE
Cosmos 2219 Rocket 2.9 22:53:32 10° NNW 22:58:50 42° ENE 23:01:38 25° ESE
Tiangong 2 0.9 22:56:23 10° W 22:59:33 90° SE 23:00:15 51° E
Cosmos 2333 4.3 22:54:41 10° NNW 23:00:20 65° ENE 23:03:12 29° SE
Shenzhou-11 Module 3.4 22:58:58 10° W 23:01:05 25° SW 23:01:05 25° SW
Cosmos 1356 Rocket 3.4 23:05:19 34° S 23:07:04 72° E 23:11:23 10° NNE
COSMOS 2455 4.2 23:10:58 21° ESE 23:10:58 21° ESE 23:15:12 10° ENE
ERS-1 Rocket 3.7 23:07:42 20° SSW 23:10:58 49° W 23:15:51 10° NNW
Helios 1B rocket 2.3 23:13:34 10° NNE 23:17:44 86° ESE 23:19:16 38° S
CZ-2C R/B 3.6 23:16:09 32° SE 23:18:19 51° ENE 23:23:46 10° N
SJ 16-02 2.0 23:14:22 10° NNW 23:18:39 49° WSW 23:20:27 30° SSW
Cosmos 2228 4.0 23:21:20 10° NNE 23:25:12 32° ENE 23:25:44 31° E
Cosmos 2333 Rocket 2.4 23:19:46 10° NNW 23:25:26 61° ENE 23:27:41 36° SE
SL-16 R/B 4.3 23:23:39 10° N 23:27:23 17° NE 23:30:55 11° E
CENTAUR R/B 3.8 23:22:19 10° WSW 23:28:08 43° NW 23:34:49 10° NNE
Okean 1-7 Rocket 3.6 23:27:08 48° SSE 23:28:14 67° E 23:32:46 10° NNE
COSMOS 2428 2.7 23:22:43 10° NNW 23:28:25 83° WSW 23:30:38 39° SSE
SPOT 1/Viking Rocket 4.0 23:26:20 29° SSW 23:28:48 56° W 23:33:54 10° NNW
IGS 5A 3.4 23:28:32 52° S 23:29:31 83° WSW 23:33:42 10° NNW
Meteor 1-29 2.9 23:27:26 10° N 23:30:56 83° WNW 23:31:16 71° SW
CZ-4C R/B 2.9 23:24:30 10° NW 23:31:46 90° SW 23:35:47 33° SSE
H-2A R/B 3.7 23:29:02 12° SW 23:32:33 25° W 23:36:41 10° NW
Cosmos 1726 Rocket 3.8 23:28:54 10° N 23:33:13 52° E 23:33:54 47° ESE
Cosmos 1125 Rocket 4.1 23:30:57 10° NNW 23:36:00 49° WSW 23:38:03 32° SSW
Cosmos 783 Rocket 4.4 23:33:59 32° SSW 23:36:30 87° ESE 23:41:50 10° NNE
Cosmos 1980 4.3 23:31:43 10° NNW 23:37:09 45° ENE 23:39:12 32° ESE
Lacrosse 5 rocket 2.5 23:34:07 10° WNW 23:37:48 29° SW 23:38:05 28° SW
Cosmos 1092 Rocket 4.1 23:36:38 10° NNW 23:42:58 74° W 23:45:54 34° S
Cosmos 2297 Rocket 2.9 23:44:24 34° ESE 23:44:35 34° ESE 23:49:38 10° NE
Cosmos 1953 4.2 23:44:55 10° NNE 23:47:46 19° ENE 23:47:46 19° ENE
Cosmos 2227 Rocket 2.6 23:47:43 40° ESE 23:48:10 41° ESE 23:53:27 10° NE
Cosmos 2058 Rocket 3.3 23:45:54 10° N 23:50:21 56° E 23:50:47 53° ESE
Cosmos 1174 4.4 23:52:18 10° NNW 23:54:42 38° NNE 23:54:42 38° NNE
